Hourly Data Report for December 28, 2019

EUREKA CLIMATE
NUNAVUT
Current Station Operator: ECCC - MSC

79°59'21.000" N
85°56'02.000" W
10.00 m
2401199
71613
NEK

Download Data

Hourly Data (December 2019)
Hourly Data Report for December 28, 2019
TIME
LST
Temp Definition
°C
Dew Point Definition
°C
Rel Hum Definition
%
Precip. Amount Definition
mm

Wind Dir Definition
10's deg

Wind Spd Definition
km/h
Visibility Definition
km
Stn Press Definition
kPa
Hmdx Definition


Wind Chill Definition


Weather Definition


00:00 -14.9 -16.1 91 0.0 13 31   100.34   -26 LegendNANA
01:00 -14.6 -15.7 91 0.0 14 36   100.26   -26 LegendNANA
02:00 -14.3 -15.4 92 0.0 13 39   100.18   -26 LegendNANA
03:00 -14.1 -15.2 92 0.0 13 36   100.13   -26 LegendNANA
04:00 -14.0 -15.1 91 0.0 13 31   100.08   -25 LegendNANA
05:00 -13.9 -14.9 92 0.0 13 38   99.99   -26 LegendNANA
06:00 -14.1 -15.2 91 0.0 13 38   99.94   -26 LegendNANA
07:00 -13.8 -15.0 91 0.0 13 35   99.89   -25 LegendNANA
08:00 -14.0 -15.3 90 0.0 13 30   99.88   -25 LegendNANA
09:00 -13.8 -15.3 88 0.0 15 31   99.78   -25 LegendNANA
10:00 -15.1 -16.5 89 0.0 16 37   99.70   -27 LegendNANA
11:00 -15.9 -17.1 90 0.0 17 30   99.70   -27 LegendNANA
12:00 -16.1 -17.4 90 0.0 15 32   99.65   -28 LegendNANA
13:00 -16.0 -17.3 90 0.0 16 32   99.68   -28 LegendNANA
14:00 -16.3 -17.5 90 0.2 16 33   99.61   -28 LegendNANA
15:00 -16.5 -17.8 90 0.0 14 31   99.63   -28 LegendNANA
16:00 -16.9 -18.1 90 0.0 12 31   99.61   -29 LegendNANA
17:00 -16.5 -17.7 90 0.0 14 29   99.52   -28 LegendNANA
18:00 -16.3 -17.5 90 0.0 12 35   99.46   -29 LegendNANA
19:00 -16.2 -17.4 90 0.0 13 21   99.38   -26 LegendNANA
20:00 -16.2 -17.5 90 0.0 12 21   99.25   -26 LegendNANA
21:00 -15.8 -17.0 90 0.0 15 27   99.21   -27 LegendNANA
22:00 -15.8 -17.0 90 0.0 14 29   99.12   -27 LegendNANA
23:00 -15.9 -17.1 90 0.0 14 26   99.05   -27 LegendNANA

Notes on Data Quality.

Legend

  • E = Estimated
  • M = Missing
  • NA = Not Available*
  • [empty] = Indicates an unobserved value
Date modified: